Location: *
(31.2983°S, 151.4094°E)
Time: 04:08:09
(UTC+00:00)

NOSS 3-4 (C) - Pass Details

Date: 25 August 2019
Orbit: 912 x 1301 km, 63.4° (Epoch: 16 September)

Event Time Altitude Azimuth Distance (km) Brightness Sun altitude
Exits shadow 18:09:13 22° 342° (NNW) 2,506 5.4 -28.4°
Maximum altitude 18:14:52 76° 63° (ENE) 1,336 4.2 -27.2°
Drops below altitude 10° 18:22:51 10° 147° (SSE) 3,255 6.6 -25.4°
Sets 18:25:36 0° 148° (SSE) 4,188 7.3 -24.9°
